Location: Newark
(52.2090°N, 4.1550°W)
Time: 02:32:09
(UTC+00:00)

Explorer 7 - Pass Details

Date: 29 September 2019
Orbit: 485 x 680 km, 50.3° (Epoch: 20 October)

Event Time Altitude Azimuth Distance (km) Brightness Sun altitude
Rises 19:55:30 0° 225° (SW) 2,694 10.7 -18.3°
Reaches altitude 10° 19:57:48 10° 216° (SW) 1,837 9.7 -18.6°
Enters shadow 20:01:15 33° 162° (SSE) 978 7.7 -19.1°
Maximum altitude 20:01:36 34° 152° (SSE) 971 - -19.2°
Drops below altitude 10° 20:05:38 10° 87° (E) 1,958 - -19.8°
Sets 20:08:09 0° 79° (ENE) 2,901 - -20.1°
